Time,TemperatureF,DewpointF,PressureIn,WindDirection,WindDirectionDegrees,WindSpeedMPH,WindSpeedGustMPH,Humidity,HourlyPrecipIn,Conditions,Clouds,dailyrainin,SoftwareType,DateUTC
2013-03-02 00:00:00,37.1,29.3,30.15,West,263,0.0,2.0,73,0.00,,---,0.00,VWS V14.01,2013-03-02 06:00:00,
2013-03-02 00:01:00,37.1,29.3,30.15,West,263,0.0,1.0,73,0.00,,---,0.00,VWS V14.01,2013-03-02 06:01:00,
2013-03-02 00:06:00,36.8,29.0,30.15,West,263,0.0,1.0,73,0.00,,---,0.00,VWS V14.01,2013-03-02 06:06:00,
2013-03-02 00:11:00,36.7,28.9,30.15,West,271,0.0,1.0,73,0.00,,---,0.00,VWS V14.01,2013-03-02 06:11:00,
2013-03-02 00:16:00,36.5,29.0,30.15,West,271,0.0,1.0,74,0.00,,---,0.00,VWS V14.01,2013-03-02 06:16:00,
2013-03-02 00:21:00,36.1,29.0,30.15,West,271,0.0,1.0,75,0.00,,---,0.00,VWS V14.01,2013-03-02 06:21:00,
2013-03-02 00:26:00,35.7,29.2,30.15,West,271,0.0,1.0,77,0.00,,---,0.00,VWS V14.01,2013-03-02 06:26:00,
2013-03-02 00:30:00,35.4,28.9,30.15,West,271,0.0,1.0,77,0.00,,---,0.00,VWS V14.01,2013-03-02 06:30:00,
2013-03-02 00:31:00,35.3,28.8,30.15,West,271,0.0,0.0,77,0.00,,---,0.00,VWS V14.01,2013-03-02 06:31:00,
2013-03-02 00:36:00,34.9,28.8,30.15,West,271,0.0,0.0,78,0.00,,---,0.00,VWS V14.01,2013-03-02 06:36:00,
2013-03-02 00:41:00,34.5,28.7,30.15,West,271,0.0,0.0,79,0.00,,---,0.00,VWS V14.01,2013-03-02 06:41:00,
2013-03-02 00:46:00,34.1,28.6,30.15,West,271,0.0,0.0,80,0.00,,---,0.00,VWS V14.01,2013-03-02 06:46:00,
2013-03-02 00:51:00,33.7,28.2,30.15,West,271,0.0,0.0,80,0.00,,---,0.00,VWS V14.01,2013-03-02 06:51:00,
2013-03-02 00:56:00,33.4,28.2,30.14,West,271,0.0,0.0,81,0.00,,---,0.00,VWS V14.01,2013-03-02 06:56:00,
2013-03-02 01:00:00,33.2,28.0,30.14,West,271,0.0,0.0,81,0.00,,---,0.00,VWS V14.01,2013-03-02 07:00:00,
2013-03-02 01:01:00,33.0,27.8,30.15,West,271,0.0,0.0,81,0.00,,---,0.00,VWS V14.01,2013-03-02 07:01:00,
2013-03-02 01:06:00,32.8,28.2,30.14,West,271,0.0,0.0,83,0.00,,---,0.00,VWS V14.01,2013-03-02 07:06:00,
2013-03-02 01:11:00,32.7,28.1,30.14,West,271,0.0,0.0,83,0.00,,---,0.00,VWS V14.01,2013-03-02 07:11:00,
2013-03-02 01:16:00,32.6,28.0,30.14,West,271,0.0,0.0,83,0.00,,---,0.00,VWS V14.01,2013-03-02 07:16:00,
2013-03-02 01:21:00,32.6,28.0,30.14,West,271,0.0,0.0,83,0.00,,---,0.00,VWS V14.01,2013-03-02 07:21:00,
2013-03-02 01:26:00,32.5,27.9,30.14,West,271,0.0,0.0,83,0.00,,---,0.00,VWS V14.01,2013-03-02 07:26:00,
2013-03-02 01:30:00,32.4,27.5,30.14,West,271,0.0,0.0,82,0.00,,---,0.00,VWS V14.01,2013-03-02 07:30:00,
2013-03-02 01:31:00,32.4,27.5,30.14,West,271,0.0,0.0,82,0.00,,---,0.00,VWS V14.01,2013-03-02 07:31:00,
2013-03-02 01:36:00,32.3,27.7,30.14,West,271,0.0,0.0,83,0.00,,---,0.00,VWS V14.01,2013-03-02 07:36:00,
2013-03-02 01:41:00,32.2,27.6,30.14,West,271,0.0,0.0,83,0.00,,---,0.00,VWS V14.01,2013-03-02 07:41:00,
2013-03-02 01:46:00,32.0,27.4,30.13,West,271,0.0,0.0,83,0.00,,---,0.00,VWS V14.01,2013-03-02 07:46:00,
2013-03-02 01:51:00,31.8,27.5,30.13,West,271,0.0,0.0,84,0.00,,---,0.00,VWS V14.01,2013-03-02 07:51:00,
2013-03-02 01:56:00,31.5,27.2,30.14,West,271,0.0,0.0,84,0.00,,---,0.00,VWS V14.01,2013-03-02 07:56:00,
2013-03-02 02:00:00,31.4,27.4,30.13,West,271,0.0,0.0,85,0.00,,---,0.00,VWS V14.01,2013-03-02 08:00:00,
2013-03-02 02:01:00,31.3,27.3,30.13,West,271,0.0,0.0,85,0.00,,---,0.00,VWS V14.01,2013-03-02 08:01:00,
2013-03-02 02:06:00,31.1,27.1,30.13,West,271,0.0,0.0,85,0.00,,---,0.00,VWS V14.01,2013-03-02 08:06:00,
2013-03-02 02:11:00,31.0,27.3,30.13,West,271,0.0,0.0,86,0.00,,---,0.00,VWS V14.01,2013-03-02 08:11:00,
2013-03-02 02:16:00,30.8,27.1,30.13,West,271,0.0,0.0,86,0.00,,---,0.00,VWS V14.01,2013-03-02 08:16:00,
2013-03-02 02:21:00,30.6,27.2,30.13,West,271,0.0,0.0,87,0.00,,---,0.00,VWS V14.01,2013-03-02 08:21:00,
2013-03-02 02:26:00,30.6,27.2,30.12,West,271,0.0,0.0,87,0.00,,---,0.00,VWS V14.01,2013-03-02 08:26:00,
2013-03-02 02:30:00,30.5,27.4,30.13,West,271,0.0,0.0,88,0.00,,---,0.00,VWS V14.01,2013-03-02 08:30:00,
2013-03-02 02:31:00,30.5,27.4,30.13,West,267,0.0,1.0,88,0.00,,---,0.00,VWS V14.01,2013-03-02 08:31:00,
2013-03-02 02:36:00,30.4,27.3,30.13,West,267,0.0,1.0,88,0.00,,---,0.00,VWS V14.01,2013-03-02 08:36:00,
2013-03-02 02:41:00,30.4,27.3,30.13,West,267,0.0,1.0,88,0.00,,---,0.00,VWS V14.01,2013-03-02 08:41:00,
2013-03-02 02:46:00,30.2,27.1,30.13,West,267,0.0,1.0,88,0.00,,---,0.00,VWS V14.01,2013-03-02 08:46:00,
2013-03-02 02:51:00,30.2,27.1,30.13,West,267,0.0,1.0,88,0.00,,---,0.00,VWS V14.01,2013-03-02 08:51:00,
2013-03-02 02:56:00,30.4,27.0,30.13,West,267,0.0,1.0,87,0.00,,---,0.00,VWS V14.01,2013-03-02 08:56:00,
2013-03-02 03:00:00,30.6,26.9,30.13,West,264,0.0,1.0,86,0.00,,---,0.00,VWS V14.01,2013-03-02 09:00:00,
2013-03-02 03:01:00,30.7,27.0,30.13,West,264,0.0,0.0,86,0.00,,---,0.00,VWS V14.01,2013-03-02 09:01:00,
2013-03-02 03:06:00,31.0,27.0,30.13,West,260,0.0,1.0,85,0.00,,---,0.00,VWS V14.01,2013-03-02 09:06:00,
2013-03-02 03:11:00,31.2,26.9,30.13,West,260,0.0,1.0,84,0.00,,---,0.00,VWS V14.01,2013-03-02 09:11:00,
2013-03-02 03:16:00,31.4,27.1,30.13,WSW,238,0.0,1.0,84,0.00,,---,0.00,VWS V14.01,2013-03-02 09:16:00,
2013-03-02 03:21:00,31.6,27.0,30.12,West,277,0.0,1.0,83,0.00,,---,0.00,VWS V14.01,2013-03-02 09:21:00,
2013-03-02 03:26:00,31.7,27.1,30.12,West,277,0.0,1.0,83,0.00,,---,0.00,VWS V14.01,2013-03-02 09:26:00,
2013-03-02 03:30:00,31.8,26.9,30.12,NW,307,0.0,2.0,82,0.00,,---,0.00,VWS V14.01,2013-03-02 09:30:00,
2013-03-02 03:31:00,31.9,27.0,30.12,WSW,245,0.0,1.0,82,0.00,,---,0.00,VWS V14.01,2013-03-02 09:31:00,
2013-03-02 03:36:00,32.2,27.0,30.12,WSW,248,0.0,2.0,81,0.00,,---,0.00,VWS V14.01,2013-03-02 09:36:00,
2013-03-02 03:41:00,32.3,27.1,30.12,NW,307,2.0,2.0,81,0.00,,---,0.00,VWS V14.01,2013-03-02 09:41:00,
2013-03-02 03:46:00,32.3,27.1,30.12,NNW,343,0.0,2.0,81,0.00,,---,0.00,VWS V14.01,2013-03-02 09:46:00,
2013-03-02 03:51:00,32.3,27.1,30.12,WNW,290,0.0,2.0,81,0.00,,---,0.00,VWS V14.01,2013-03-02 09:51:00,
2013-03-02 03:56:00,32.2,26.7,30.12,WNW,287,0.0,2.0,80,0.00,,---,0.00,VWS V14.01,2013-03-02 09:56:00,
2013-03-02 04:00:00,32.1,26.6,30.12,WNW,298,0.0,2.0,80,0.00,,---,0.00,VWS V14.01,2013-03-02 10:00:00,
2013-03-02 04:01:00,32.1,26.6,30.12,NW,311,0.0,2.0,80,0.00,,---,0.00,VWS V14.01,2013-03-02 10:01:00,
2013-03-02 04:06:00,32.0,26.5,30.12,NW,311,0.0,2.0,80,0.00,,---,0.00,VWS V14.01,2013-03-02 10:06:00,
2013-03-02 04:11:00,31.8,26.6,30.12,NW,311,0.0,2.0,81,0.00,,---,0.00,VWS V14.01,2013-03-02 10:11:00,
2013-03-02 04:16:00,31.6,26.8,30.12,NW,311,0.0,2.0,82,0.00,,---,0.00,VWS V14.01,2013-03-02 10:16:00,
2013-03-02 04:21:00,31.2,26.4,30.12,NW,311,0.0,2.0,82,0.00,,---,0.00,VWS V14.01,2013-03-02 10:21:00,
2013-03-02 04:26:00,30.8,26.3,30.13,NW,311,0.0,2.0,83,0.00,,---,0.00,VWS V14.01,2013-03-02 10:26:00,
2013-03-02 04:30:00,30.6,26.4,30.13,NW,311,0.0,2.0,84,0.00,,---,0.00,VWS V14.01,2013-03-02 10:30:00,
2013-03-02 04:31:00,30.5,26.5,30.13,NW,311,0.0,0.0,85,0.00,,---,0.00,VWS V14.01,2013-03-02 10:31:00,
2013-03-02 04:36:00,30.2,26.5,30.13,NW,311,0.0,0.0,86,0.00,,---,0.00,VWS V14.01,2013-03-02 10:36:00,
2013-03-02 04:41:00,29.9,26.2,30.12,NW,311,0.0,0.0,86,0.00,,---,0.00,VWS V14.01,2013-03-02 10:41:00,
2013-03-02 04:46:00,29.7,26.0,30.13,NW,311,0.0,0.0,86,0.00,,---,0.00,VWS V14.01,2013-03-02 10:46:00,
2013-03-02 04:51:00,29.6,25.9,30.13,NW,304,0.0,0.0,86,0.00,,---,0.00,VWS V14.01,2013-03-02 10:51:00,
2013-03-02 04:56:00,29.7,26.0,30.13,NW,304,0.0,0.0,86,0.00,,---,0.00,VWS V14.01,2013-03-02 10:56:00,
2013-03-02 05:00:00,29.6,25.9,30.13,NW,304,0.0,0.0,86,0.00,,---,0.00,VWS V14.01,2013-03-02 11:00:00,
2013-03-02 05:01:00,29.6,25.6,30.13,NW,304,0.0,0.0,85,0.00,,---,0.00,VWS V14.01,2013-03-02 11:01:00,
2013-03-02 05:06:00,29.5,25.8,30.13,NW,304,0.0,0.0,86,0.00,,---,0.00,VWS V14.01,2013-03-02 11:06:00,
2013-03-02 05:11:00,29.5,25.8,30.13,NW,304,0.0,0.0,86,0.00,,---,0.00,VWS V14.01,2013-03-02 11:11:00,
2013-03-02 05:16:00,29.6,25.9,30.13,NW,304,0.0,0.0,86,0.00,,---,0.00,VWS V14.01,2013-03-02 11:16:00,
2013-03-02 05:21:00,29.8,25.9,30.13,SW,221,0.0,4.0,85,0.00,,---,0.00,VWS V14.01,2013-03-02 11:21:00,
2013-03-02 05:26:00,30.2,26.0,30.13,WNW,285,0.0,4.0,84,0.00,,---,0.00,VWS V14.01,2013-03-02 11:26:00,
2013-03-02 05:30:00,30.4,25.9,30.13,NNE,26,0.0,4.0,83,0.00,,---,0.00,VWS V14.01,2013-03-02 11:30:00,
2013-03-02 05:31:00,30.5,26.0,30.13,West,275,1.0,1.0,83,0.00,,---,0.00,VWS V14.01,2013-03-02 11:31:00,
2013-03-02 05:36:00,30.8,26.0,30.14,WSW,249,0.0,2.0,82,0.00,,---,0.00,VWS V14.01,2013-03-02 11:36:00,
2013-03-02 05:41:00,30.8,26.0,30.14,WNW,297,0.0,2.0,82,0.00,,---,0.00,VWS V14.01,2013-03-02 11:41:00,
2013-03-02 05:46:00,30.8,26.0,30.14,WNW,283,0.0,2.0,82,0.00,,---,0.00,VWS V14.01,2013-03-02 11:46:00,
2013-03-02 05:51:00,30.6,25.8,30.14,WNW,288,0.0,2.0,82,0.00,,---,0.00,VWS V14.01,2013-03-02 11:51:00,
2013-03-02 05:56:00,30.7,25.6,30.14,WNW,291,0.0,2.0,81,0.00,,---,0.00,VWS V14.01,2013-03-02 11:56:00,
2013-03-02 06:00:00,30.7,25.9,30.15,WSW,253,0.0,2.0,82,0.00,,---,0.00,VWS V14.01,2013-03-02 12:00:00,
2013-03-02 06:01:00,30.7,25.9,30.14,NNW,336,0.0,1.0,82,0.00,,---,0.00,VWS V14.01,2013-03-02 12:01:00,
2013-03-02 06:06:00,30.8,25.7,30.15,NW,311,0.0,1.0,81,0.00,,---,0.00,VWS V14.01,2013-03-02 12:06:00,
2013-03-02 06:11:00,30.7,25.9,30.15,NW,310,0.0,1.0,82,0.00,,---,0.00,VWS V14.01,2013-03-02 12:11:00,
2013-03-02 06:16:00,30.5,26.0,30.15,West,278,0.0,1.0,83,0.00,,---,0.00,VWS V14.01,2013-03-02 12:16:00,
2013-03-02 06:21:00,30.4,25.9,30.16,West,278,0.0,1.0,83,0.00,,---,0.00,VWS V14.01,2013-03-02 12:21:00,
2013-03-02 06:26:00,30.4,25.6,30.16,West,278,0.0,1.0,82,0.00,,---,0.00,VWS V14.01,2013-03-02 12:26:00,
2013-03-02 06:30:00,30.4,25.6,30.16,West,278,0.0,1.0,82,0.00,,---,0.00,VWS V14.01,2013-03-02 12:30:00,
2013-03-02 06:31:00,30.5,25.7,30.16,West,278,0.0,0.0,82,0.00,,---,0.00,VWS V14.01,2013-03-02 12:31:00,
2013-03-02 06:36:00,30.5,25.7,30.16,West,263,0.0,1.0,82,0.00,,---,0.00,VWS V14.01,2013-03-02 12:36:00,
2013-03-02 06:41:00,30.6,25.8,30.16,West,280,0.0,1.0,82,0.00,,---,0.00,VWS V14.01,2013-03-02 12:41:00,
2013-03-02 06:46:00,30.8,26.0,30.16,West,278,0.0,1.0,82,0.00,,---,0.00,VWS V14.01,2013-03-02 12:46:00,
2013-03-02 06:51:00,30.9,26.1,30.17,SW,235,0.0,1.0,82,0.00,,---,0.00,VWS V14.01,2013-03-02 12:51:00,
2013-03-02 06:56:00,31.1,26.3,30.17,WNW,302,0.0,1.0,82,0.00,,---,0.00,VWS V14.01,2013-03-02 12:56:00,
2013-03-02 07:00:00,31.4,26.5,30.17,WNW,283,0.0,1.0,82,0.00,,---,0.00,VWS V14.01,2013-03-02 13:00:00,
2013-03-02 07:01:00,31.5,26.6,30.17,WSW,245,0.0,1.0,82,0.00,,---,0.00,VWS V14.01,2013-03-02 13:01:00,
2013-03-02 07:06:00,32.0,27.1,30.17,West,276,0.0,3.0,82,0.00,,---,0.00,VWS V14.01,2013-03-02 13:06:00,
2013-03-02 07:11:00,32.6,27.4,30.17,NNW,340,0.0,3.0,81,0.00,,---,0.00,VWS V14.01,2013-03-02 13:11:00,
2013-03-02 07:16:00,33.5,28.0,30.17,WSW,252,0.0,3.0,80,0.00,,---,0.00,VWS V14.01,2013-03-02 13:16:00,
2013-03-02 07:21:00,34.3,28.2,30.17,NW,314,0.0,3.0,78,0.00,,---,0.00,VWS V14.01,2013-03-02 13:21:00,
2013-03-02 07:26:00,35.0,28.2,30.17,West,273,0.0,3.0,76,0.00,,---,0.00,VWS V14.01,2013-03-02 13:26:00,
2013-03-02 07:30:00,35.6,29.1,30.18,West,271,0.0,3.0,77,0.00,,---,0.00,VWS V14.01,2013-03-02 13:30:00,
2013-03-02 07:31:00,35.9,28.4,30.18,ENE,65,0.0,3.0,74,0.00,,---,0.00,VWS V14.01,2013-03-02 13:31:00,
2013-03-02 07:36:00,36.5,28.7,30.18,NW,307,1.0,5.0,73,0.00,,---,0.00,VWS V14.01,2013-03-02 13:36:00,
2013-03-02 07:41:00,37.1,28.9,30.18,NNE,19,1.0,5.0,72,0.00,,---,0.00,VWS V14.01,2013-03-02 13:41:00,
2013-03-02 07:46:00,37.8,28.6,30.18,ENE,68,0.0,5.0,69,0.00,,---,0.00,VWS V14.01,2013-03-02 13:46:00,
2013-03-02 07:51:00,38.0,28.4,30.19,West,276,2.0,6.0,68,0.00,,---,0.00,VWS V14.01,2013-03-02 13:51:00,
2013-03-02 07:56:00,38.2,28.6,30.19,NE,37,1.0,6.0,68,0.00,,---,0.00,VWS V14.01,2013-03-02 13:56:00,
2013-03-02 08:00:00,38.7,29.4,30.19,NNE,17,1.0,6.0,69,0.00,,---,0.00,VWS V14.01,2013-03-02 14:00:00,
2013-03-02 08:01:00,38.9,29.2,30.19,NE,47,0.0,4.0,68,0.00,,---,0.00,VWS V14.01,2013-03-02 14:01:00,
2013-03-02 08:06:00,39.8,29.4,30.19,West,271,0.0,4.0,66,0.00,,---,0.00,VWS V14.01,2013-03-02 14:06:00,
2013-03-02 08:11:00,40.1,29.3,30.20,NNW,339,5.0,9.0,65,0.00,,---,0.00,VWS V14.01,2013-03-02 14:11:00,
2013-03-02 08:16:00,39.9,29.1,30.19,NW,319,0.0,9.0,65,0.00,,---,0.00,VWS V14.01,2013-03-02 14:16:00,
2013-03-02 08:21:00,40.1,28.9,30.19,NW,321,3.0,9.0,64,0.00,,---,0.00,VWS V14.01,2013-03-02 14:21:00,
2013-03-02 08:26:00,40.4,28.8,30.19,West,260,0.0,9.0,63,0.00,,---,0.00,VWS V14.01,2013-03-02 14:26:00,
2013-03-02 08:30:00,40.9,29.7,30.19,North,358,0.0,9.0,64,0.00,,---,0.00,VWS V14.01,2013-03-02 14:30:00,
2013-03-02 08:31:00,41.2,30.0,30.19,SSW,211,1.0,1.0,64,0.00,,---,0.00,VWS V14.01,2013-03-02 14:31:00,
2013-03-02 08:36:00,41.4,29.4,30.20,NW,319,0.0,6.0,62,0.00,,---,0.00,VWS V14.01,2013-03-02 14:36:00,
2013-03-02 08:41:00,41.6,29.6,30.19,WNW,300,2.0,6.0,62,0.00,,---,0.00,VWS V14.01,2013-03-02 14:41:00,
2013-03-02 08:46:00,42.2,29.7,30.19,West,274,0.0,6.0,61,0.00,,---,0.00,VWS V14.01,2013-03-02 14:46:00,
2013-03-02 08:51:00,42.7,29.4,30.19,SSW,210,2.0,6.0,59,0.00,,---,0.00,VWS V14.01,2013-03-02 14:51:00,
2013-03-02 08:56:00,42.5,30.0,30.19,NE,51,0.0,8.0,61,0.00,,---,0.00,VWS V14.01,2013-03-02 14:56:00,
2013-03-02 09:00:00,43.1,31.0,30.19,NW,321,4.0,8.0,62,0.00,,---,0.00,VWS V14.01,2013-03-02 15:00:00,
2013-03-02 09:01:00,43.3,30.0,30.19,ENE,77,0.0,6.0,59,0.00,,---,0.00,VWS V14.01,2013-03-02 15:01:00,
2013-03-02 09:06:00,43.7,30.3,30.19,NNW,334,1.0,6.0,59,0.00,,---,0.00,VWS V14.01,2013-03-02 15:06:00,
2013-03-02 09:11:00,43.8,29.1,30.19,South,183,2.0,7.0,56,0.00,,---,0.00,VWS V14.01,2013-03-02 15:11:00,
2013-03-02 09:16:00,43.5,28.9,30.19,NW,326,1.0,7.0,56,0.00,,---,0.00,VWS V14.01,2013-03-02 15:16:00,
2013-03-02 09:21:00,43.1,28.5,30.19,NW,315,4.0,10.0,56,0.00,,---,0.00,VWS V14.01,2013-03-02 15:21:00,
2013-03-02 09:26:00,43.4,28.8,30.18,NNW,336,2.0,10.0,56,0.00,,---,0.00,VWS V14.01,2013-03-02 15:26:00,
2013-03-02 09:30:00,43.7,28.6,30.19,NW,326,2.0,10.0,55,0.00,,---,0.00,VWS V14.01,2013-03-02 15:30:00,
2013-03-02 09:31:00,43.8,28.7,30.19,East,80,3.0,6.0,55,0.00,,---,0.00,VWS V14.01,2013-03-02 15:31:00,
2013-03-02 09:36:00,44.1,28.5,30.18,NW,321,0.0,6.0,54,0.00,,---,0.00,VWS V14.01,2013-03-02 15:36:00,
2013-03-02 09:41:00,44.2,28.6,30.18,NW,325,2.0,11.0,54,0.00,,---,0.00,VWS V14.01,2013-03-02 15:41:00,
2013-03-02 09:46:00,44.4,28.4,30.18,NW,309,5.0,11.0,53,0.00,,---,0.00,VWS V14.01,2013-03-02 15:46:00,
2013-03-02 09:51:00,44.1,28.1,30.18,ESE,109,1.0,11.0,53,0.00,,---,0.00,VWS V14.01,2013-03-02 15:51:00,
2013-03-02 09:56:00,44.1,28.5,30.18,NNW,333,4.0,11.0,54,0.00,,---,0.00,VWS V14.01,2013-03-02 15:56:00,
2013-03-02 10:00:00,44.1,28.1,30.18,WSW,239,7.0,11.0,53,0.00,,---,0.00,VWS V14.01,2013-03-02 16:00:00,
2013-03-02 10:01:00,44.1,28.1,30.18,SSW,193,0.0,7.0,53,0.00,,---,0.00,VWS V14.01,2013-03-02 16:01:00,
2013-03-02 10:06:00,44.3,28.7,30.18,West,274,1.0,7.0,54,0.00,,---,0.00,VWS V14.01,2013-03-02 16:06:00,
2013-03-02 10:11:00,44.2,28.2,30.17,North,5,2.0,9.0,53,0.00,,---,0.00,VWS V14.01,2013-03-02 16:11:00,
2013-03-02 10:16:00,45.0,28.9,30.17,West,267,5.0,9.0,53,0.00,,---,0.00,VWS V14.01,2013-03-02 16:16:00,
2013-03-02 10:21:00,45.6,28.5,30.17,NNW,330,2.0,9.0,51,0.00,,---,0.00,VWS V14.01,2013-03-02 16:21:00,
2013-03-02 10:26:00,45.7,29.1,30.17,West,281,3.0,9.0,52,0.00,,---,0.00,VWS V14.01,2013-03-02 16:26:00,
2013-03-02 10:30:00,45.7,28.1,30.17,NW,325,6.0,10.0,50,0.00,,---,0.00,VWS V14.01,2013-03-02 16:30:00,
2013-03-02 10:31:00,45.5,27.5,30.17,WNW,298,2.0,8.0,49,0.00,,---,0.00,VWS V14.01,2013-03-02 16:31:00,
2013-03-02 10:36:00,45.5,28.4,30.17,SSW,197,0.0,8.0,51,0.00,,---,0.00,VWS V14.01,2013-03-02 16:36:00,
2013-03-02 10:41:00,46.2,28.1,30.17,North,354,5.0,10.0,49,0.00,,---,0.00,VWS V14.01,2013-03-02 16:41:00,
2013-03-02 10:46:00,45.4,28.4,30.17,SSW,212,0.0,10.0,51,0.00,,---,0.00,VWS V14.01,2013-03-02 16:46:00,
2013-03-02 10:51:00,45.6,28.5,30.16,WSW,253,4.0,10.0,51,0.00,,---,0.00,VWS V14.01,2013-03-02 16:51:00,
2013-03-02 10:56:00,46.1,28.5,30.16,West,281,1.0,10.0,50,0.00,,---,0.00,VWS V14.01,2013-03-02 16:56:00,
2013-03-02 11:00:00,46.0,28.4,30.16,West,270,6.0,10.0,50,0.00,,---,0.00,VWS V14.01,2013-03-02 17:00:00,
2013-03-02 11:01:00,46.0,28.4,30.16,WNW,297,6.0,7.0,50,0.00,,---,0.00,VWS V14.01,2013-03-02 17:01:00,
2013-03-02 11:06:00,46.4,28.8,30.16,NNW,347,1.0,9.0,50,0.00,,---,0.00,VWS V14.01,2013-03-02 17:06:00,
2013-03-02 11:11:00,47.3,29.1,30.15,NNW,334,4.0,9.0,49,0.00,,---,0.00,VWS V14.01,2013-03-02 17:11:00,
2013-03-02 11:16:00,47.3,28.1,30.15,West,278,0.0,11.0,47,0.00,,---,0.00,VWS V14.01,2013-03-02 17:16:00,
2013-03-02 11:21:00,46.9,28.2,30.15,West,267,3.0,11.0,48,0.00,,---,0.00,VWS V14.01,2013-03-02 17:21:00,
2013-03-02 11:26:00,46.4,28.3,30.15,WSW,248,3.0,12.0,49,0.00,,---,0.00,VWS V14.01,2013-03-02 17:26:00,
2013-03-02 11:30:00,46.3,28.2,30.15,NNW,332,8.0,12.0,49,0.00,,---,0.00,VWS V14.01,2013-03-02 17:30:00,
2013-03-02 11:31:00,46.3,28.2,30.15,NNW,336,3.0,11.0,49,0.00,,---,0.00,VWS V14.01,2013-03-02 17:31:00,
2013-03-02 11:36:00,46.3,28.7,30.15,NE,40,2.0,11.0,50,0.00,,---,0.00,VWS V14.01,2013-03-02 17:36:00,
2013-03-02 11:41:00,46.3,28.7,30.15,West,270,5.0,11.0,50,0.00,,---,0.00,VWS V14.01,2013-03-02 17:41:00,
2013-03-02 11:46:00,46.2,28.6,30.15,West,269,3.0,11.0,50,0.00,,---,0.00,VWS V14.01,2013-03-02 17:46:00,
2013-03-02 11:51:00,46.5,28.9,30.15,NE,34,1.0,11.0,50,0.00,,---,0.00,VWS V14.01,2013-03-02 17:51:00,
2013-03-02 11:56:00,46.8,29.2,30.15,NNW,345,7.0,11.0,50,0.00,,---,0.00,VWS V14.01,2013-03-02 17:56:00,
2013-03-02 12:00:00,46.8,28.7,30.14,NNE,15,4.0,12.0,49,0.00,,---,0.00,VWS V14.01,2013-03-02 18:00:00,
2013-03-02 12:01:00,46.8,28.7,30.14,WNW,291,2.0,8.0,49,0.00,,---,0.00,VWS V14.01,2013-03-02 18:01:00,
2013-03-02 12:06:00,47.2,29.0,30.14,SW,224,3.0,8.0,49,0.00,,---,0.00,VWS V14.01,2013-03-02 18:06:00,
2013-03-02 12:11:00,47.2,28.0,30.14,NW,304,2.0,8.0,47,0.00,,---,0.00,VWS V14.01,2013-03-02 18:11:00,
2013-03-02 12:16:00,46.7,28.1,30.14,ESE,102,0.0,10.0,48,0.00,,---,0.00,VWS V14.01,2013-03-02 18:16:00,
2013-03-02 12:21:00,46.1,27.5,30.14,NNW,334,4.0,13.0,48,0.00,,---,0.00,VWS V14.01,2013-03-02 18:21:00,
2013-03-02 12:26:00,45.9,28.3,30.13,NNW,347,3.0,13.0,50,0.00,,---,0.00,VWS V14.01,2013-03-02 18:26:00,
2013-03-02 12:30:00,45.7,27.6,30.13,WNW,290,3.0,13.0,49,0.00,,---,0.00,VWS V14.01,2013-03-02 18:30:00,
2013-03-02 12:31:00,45.5,27.5,30.13,North,9,8.0,11.0,49,0.00,,---,0.00,VWS V14.01,2013-03-02 18:31:00,
2013-03-02 12:36:00,44.9,27.4,30.13,NW,326,6.0,11.0,50,0.00,,---,0.00,VWS V14.01,2013-03-02 18:36:00,
2013-03-02 12:41:00,45.0,27.5,30.12,West,273,5.0,11.0,50,0.00,,---,0.00,VWS V14.01,2013-03-02 18:41:00,
2013-03-02 12:46:00,45.3,27.3,30.12,West,263,1.0,11.0,49,0.00,,---,0.00,VWS V14.01,2013-03-02 18:46:00,
2013-03-02 12:50:00,45.7,27.6,30.12,West,277,0.0,11.0,49,0.00,,---,0.00,VWS V14.01,2013-03-02 18:50:00,
2013-03-02 12:55:00,45.9,27.3,30.12,NW,316,6.0,12.0,48,0.00,,---,0.00,VWS V14.01,2013-03-02 18:55:00,
2013-03-02 13:00:00,45.9,26.8,30.12,SW,229,6.0,12.0,47,0.00,,---,0.00,VWS V14.01,2013-03-02 19:00:00,
2013-03-02 13:05:00,45.2,26.7,30.12,West,273,2.0,13.0,48,0.00,,---,0.00,VWS V14.01,2013-03-02 19:05:00,
2013-03-02 13:10:00,44.9,26.4,30.12,WNW,288,3.0,13.0,48,0.00,,---,0.00,VWS V14.01,2013-03-02 19:10:00,
2013-03-02 13:15:00,44.9,26.4,30.12,West,259,2.0,13.0,48,0.00,,---,0.00,VWS V14.01,2013-03-02 19:15:00,
2013-03-02 13:20:00,45.3,26.8,30.11,NW,307,2.0,13.0,48,0.00,,---,0.00,VWS V14.01,2013-03-02 19:20:00,
2013-03-02 13:25:00,45.1,26.6,30.11,ESE,113,2.0,13.0,48,0.00,,---,0.00,VWS V14.01,2013-03-02 19:25:00,
2013-03-02 13:30:00,45.5,26.5,30.11,South,169,2.0,11.0,47,0.00,,---,0.00,VWS V14.01,2013-03-02 19:30:00,
2013-03-02 13:35:00,45.6,27.1,30.11,SE,133,2.0,11.0,48,0.00,,---,0.00,VWS V14.01,2013-03-02 19:35:00,
2013-03-02 13:40:00,45.7,26.6,30.11,NW,316,2.0,13.0,47,0.00,,---,0.00,VWS V14.01,2013-03-02 19:40:00,
2013-03-02 13:45:00,45.6,27.1,30.11,West,266,3.0,13.0,48,0.00,,---,0.00,VWS V14.01,2013-03-02 19:45:00,
2013-03-02 13:50:00,45.3,26.3,30.11,East,84,1.0,13.0,47,0.00,,---,0.00,VWS V14.01,2013-03-02 19:50:00,
2013-03-02 13:55:00,45.6,27.1,30.11,ESE,105,3.0,13.0,48,0.00,,---,0.00,VWS V14.01,2013-03-02 19:55:00,
2013-03-02 14:00:00,45.7,26.6,30.11,NNE,33,2.0,13.0,47,0.00,,---,0.00,VWS V14.01,2013-03-02 20:00:00,
2013-03-02 14:05:00,45.6,26.5,30.11,NNE,33,0.0,13.0,47,0.00,,---,0.00,VWS V14.01,2013-03-02 20:05:00,
2013-03-02 14:10:00,45.6,26.0,30.11,NW,326,5.0,13.0,46,0.00,,---,0.00,VWS V14.01,2013-03-02 20:10:00,
2013-03-02 14:15:00,45.2,26.2,30.11,NNW,329,1.0,13.0,47,0.00,,---,0.00,VWS V14.01,2013-03-02 20:15:00,
2013-03-02 14:27:00,44.7,26.2,30.11,NNE,13,2.0,2.0,48,0.00,,---,0.00,VWS V14.01,2013-03-02 20:27:00,
2013-03-02 14:30:00,44.5,26.5,30.11,NNW,348,2.0,7.0,49,0.00,,---,0.00,VWS V14.01,2013-03-02 20:30:00,
2013-03-02 14:32:00,44.3,26.4,30.11,WNW,302,3.0,12.0,49,0.00,,---,0.00,VWS V14.01,2013-03-02 20:32:00,
2013-03-02 14:37:00,44.0,26.1,30.11,WNW,291,1.0,12.0,49,0.00,,---,0.00,VWS V14.01,2013-03-02 20:37:00,
2013-03-02 14:42:00,44.3,26.9,30.11,NNW,336,3.0,12.0,50,0.00,,---,0.00,VWS V14.01,2013-03-02 20:42:00,
2013-03-02 14:47:00,44.3,26.4,30.11,NW,322,2.0,12.0,49,0.00,,---,0.00,VWS V14.01,2013-03-02 20:47:00,
2013-03-02 14:52:00,44.1,26.2,30.11,NNW,343,4.0,12.0,49,0.00,,---,0.00,VWS V14.01,2013-03-02 20:52:00,
2013-03-02 14:57:00,43.8,26.4,30.11,NNW,332,3.0,12.0,50,0.00,,---,0.00,VWS V14.01,2013-03-02 20:57:00,
2013-03-02 15:00:00,43.7,26.3,30.11,NW,318,1.0,12.0,50,0.00,,---,0.00,VWS V14.01,2013-03-02 21:00:00,
2013-03-02 15:02:00,43.7,26.3,30.11,North,8,3.0,7.0,50,0.00,,---,0.00,VWS V14.01,2013-03-02 21:02:00,
2013-03-02 15:07:00,43.5,26.6,30.11,NW,325,3.0,7.0,51,0.00,,---,0.00,VWS V14.01,2013-03-02 21:07:00,
2013-03-02 15:12:00,43.5,26.1,30.11,NNW,342,2.0,9.0,50,0.00,,---,0.00,VWS V14.01,2013-03-02 21:12:00,
2013-03-02 15:17:00,43.4,26.0,30.11,NNW,328,2.0,9.0,50,0.00,,---,0.00,VWS V14.01,2013-03-02 21:17:00,
2013-03-02 15:22:00,43.2,26.3,30.11,WNW,287,8.0,9.0,51,0.00,,---,0.00,VWS V14.01,2013-03-02 21:22:00,
2013-03-02 15:27:00,43.0,26.6,30.11,West,260,1.0,10.0,52,0.00,,---,0.00,VWS V14.01,2013-03-02 21:27:00,
2013-03-02 15:30:00,43.0,26.6,30.11,West,277,1.0,10.0,52,0.00,,---,0.00,VWS V14.01,2013-03-02 21:30:00,
2013-03-02 15:32:00,42.9,26.0,30.11,NNE,25,6.0,7.0,51,0.00,,---,0.00,VWS V14.01,2013-03-02 21:32:00,
2013-03-02 15:37:00,42.7,26.3,30.11,NW,309,3.0,11.0,52,0.00,,---,0.00,VWS V14.01,2013-03-02 21:37:00,
2013-03-02 15:42:00,42.7,26.3,30.11,WSW,248,2.0,11.0,52,0.00,,---,0.00,VWS V14.01,2013-03-02 21:42:00,
2013-03-02 15:47:00,42.5,26.1,30.11,NW,307,4.0,7.0,52,0.00,,---,0.00,VWS V14.01,2013-03-02 21:47:00,
2013-03-02 15:52:00,42.2,26.3,30.11,NW,323,6.0,8.0,53,0.00,,---,0.00,VWS V14.01,2013-03-02 21:52:00,
2013-03-02 15:57:00,42.1,26.2,30.11,West,269,4.0,8.0,53,0.00,,---,0.00,VWS V14.01,2013-03-02 21:57:00,
2013-03-02 16:00:00,42.0,26.6,30.11,NNW,338,1.0,8.0,54,0.00,,---,0.00,VWS V14.01,2013-03-02 22:00:00,
2013-03-02 16:02:00,42.0,26.6,30.12,NNW,332,1.0,4.0,54,0.00,,---,0.00,VWS V14.01,2013-03-02 22:02:00,
2013-03-02 16:07:00,42.0,26.6,30.12,NW,307,3.0,8.0,54,0.00,,---,0.00,VWS V14.01,2013-03-02 22:07:00,
2013-03-02 16:12:00,41.7,26.3,30.12,WNW,297,3.0,11.0,54,0.00,,---,0.00,VWS V14.01,2013-03-02 22:12:00,
2013-03-02 16:17:00,41.6,26.2,30.12,North,353,1.0,11.0,54,0.00,,---,0.00,VWS V14.01,2013-03-02 22:17:00,
2013-03-02 16:22:00,41.5,26.1,30.12,NNE,33,2.0,11.0,54,0.00,,---,0.00,VWS V14.01,2013-03-02 22:22:00,
2013-03-02 16:27:00,41.4,26.0,30.13,North,351,6.0,11.0,54,0.00,,---,0.00,VWS V14.01,2013-03-02 22:27:00,
2013-03-02 16:30:00,41.3,25.9,30.13,NW,325,6.0,11.0,54,0.00,,---,0.00,VWS V14.01,2013-03-02 22:30:00,
2013-03-02 16:32:00,41.3,25.9,30.13,NW,304,5.0,8.0,54,0.00,,---,0.00,VWS V14.01,2013-03-02 22:32:00,
2013-03-02 16:37:00,41.1,25.3,30.13,North,351,10.0,12.0,53,0.00,,---,0.00,VWS V14.01,2013-03-02 22:37:00,
2013-03-02 16:42:00,40.9,25.5,30.13,West,281,5.0,12.0,54,0.00,,---,0.00,VWS V14.01,2013-03-02 22:42:00,
2013-03-02 16:47:00,40.8,25.5,30.13,NNW,345,4.0,12.0,54,0.00,,---,0.00,VWS V14.01,2013-03-02 22:47:00,
2013-03-02 16:52:00,40.7,25.4,30.14,WNW,285,1.0,12.0,54,0.00,,---,0.00,VWS V14.01,2013-03-02 22:52:00,
2013-03-02 16:57:00,40.7,25.4,30.14,NW,307,2.0,12.0,54,0.00,,---,0.00,VWS V14.01,2013-03-02 22:57:00,
2013-03-02 17:00:00,40.7,25.4,30.14,West,277,1.0,12.0,54,0.00,,---,0.00,VWS V14.01,2013-03-02 23:00:00,
2013-03-02 17:02:00,40.7,25.4,30.14,WNW,282,1.0,4.0,54,0.00,,---,0.00,VWS V14.01,2013-03-02 23:02:00,
2013-03-02 17:07:00,40.6,25.7,30.14,NNW,342,2.0,9.0,55,0.00,,---,0.00,VWS V14.01,2013-03-02 23:07:00,
2013-03-02 17:12:00,40.6,25.7,30.14,West,269,1.0,9.0,55,0.00,,---,0.00,VWS V14.01,2013-03-02 23:12:00,
2013-03-02 17:17:00,40.6,25.7,30.14,NNE,27,1.0,9.0,55,0.00,,---,0.00,VWS V14.01,2013-03-02 23:17:00,
2013-03-02 17:22:00,40.5,25.6,30.14,NNE,23,1.0,9.0,55,0.00,,---,0.00,VWS V14.01,2013-03-02 23:22:00,
2013-03-02 17:27:00,40.4,25.5,30.14,NNE,13,1.0,9.0,55,0.00,,---,0.00,VWS V14.01,2013-03-02 23:27:00,
2013-03-02 17:30:00,40.4,25.5,30.14,WNW,302,2.0,9.0,55,0.00,,---,0.00,VWS V14.01,2013-03-02 23:30:00,
2013-03-02 17:32:00,40.4,25.5,30.14,WNW,293,3.0,3.0,55,0.00,,---,0.00,VWS V14.01,2013-03-02 23:32:00,
2013-03-02 17:37:00,40.3,25.9,30.14,NW,316,2.0,8.0,56,0.00,,---,0.00,VWS V14.01,2013-03-02 23:37:00,
2013-03-02 17:42:00,40.2,25.8,30.15,NNW,328,7.0,11.0,56,0.00,,---,0.00,VWS V14.01,2013-03-02 23:42:00,
2013-03-02 17:47:00,40.1,25.7,30.15,North,9,2.0,11.0,56,0.00,,---,0.00,VWS V14.01,2013-03-02 23:47:00,
2013-03-02 17:52:00,39.9,25.5,30.15,NNW,330,3.0,11.0,56,0.00,,---,0.00,VWS V14.01,2013-03-02 23:52:00,
2013-03-02 17:57:00,39.9,25.5,30.16,West,268,1.0,11.0,56,0.00,,---,0.00,VWS V14.01,2013-03-02 23:57:00,
2013-03-02 18:00:00,39.8,25.0,30.15,WNW,283,0.0,11.0,55,0.00,,---,0.00,VWS V14.01,2013-03-03 00:00:00,
2013-03-02 18:02:00,39.8,25.4,30.16,WNW,293,0.0,9.0,56,0.00,,---,0.00,VWS V14.01,2013-03-03 00:02:00,
2013-03-02 18:07:00,39.7,25.3,30.16,North,5,7.0,9.0,56,0.00,,---,0.00,VWS V14.01,2013-03-03 00:07:00,
2013-03-02 18:12:00,39.6,25.6,30.16,WNW,288,1.0,9.0,57,0.00,,---,0.00,VWS V14.01,2013-03-03 00:12:00,
2013-03-02 18:17:00,39.6,25.6,30.16,NW,314,5.0,9.0,57,0.00,,---,0.00,VWS V14.01,2013-03-03 00:17:00,
2013-03-02 18:22:00,39.5,25.5,30.16,West,280,2.0,9.0,57,0.00,,---,0.00,VWS V14.01,2013-03-03 00:22:00,
2013-03-02 18:27:00,39.5,25.5,30.17,ESE,114,1.0,9.0,57,0.00,,---,0.00,VWS V14.01,2013-03-03 00:27:00,
2013-03-02 18:30:00,39.5,26.0,30.17,NNW,330,3.0,9.0,58,0.00,,---,0.00,VWS V14.01,2013-03-03 00:30:00,
2013-03-02 18:32:00,39.5,25.5,30.17,NNW,345,1.0,8.0,57,0.00,,---,0.00,VWS V14.01,2013-03-03 00:32:00,
2013-03-02 18:37:00,39.4,25.9,30.17,NW,321,2.0,8.0,58,0.00,,---,0.00,VWS V14.01,2013-03-03 00:37:00,
2013-03-02 18:42:00,39.4,25.9,30.17,North,6,1.0,8.0,58,0.00,,---,0.00,VWS V14.01,2013-03-03 00:42:00,
2013-03-02 18:47:00,39.4,25.9,30.17,WNW,293,2.0,8.0,58,0.00,,---,0.00,VWS V14.01,2013-03-03 00:47:00,
2013-03-02 18:52:00,39.3,25.8,30.18,North,354,0.0,6.0,58,0.00,,---,0.00,VWS V14.01,2013-03-03 00:52:00,
2013-03-02 18:57:00,39.3,25.8,30.18,North,11,5.0,8.0,58,0.00,,---,0.00,VWS V14.01,2013-03-03 00:57:00,
2013-03-02 19:00:00,38.8,26.9,30.19,West,262,1.0,8.0,62,0.00,,---,0.00,VWS V14.01,2013-03-03 01:00:00,
2013-03-02 19:02:00,39.2,25.7,30.18,NW,307,3.0,6.0,58,0.00,,---,0.00,VWS V14.01,2013-03-03 01:02:00,
2013-03-02 19:07:00,39.2,26.1,30.18,NW,308,0.0,8.0,59,0.00,,---,0.00,VWS V14.01,2013-03-03 01:07:00,
2013-03-02 19:12:00,39.1,25.6,30.18,WNW,300,0.0,10.0,58,0.00,,---,0.00,VWS V14.01,2013-03-03 01:12:00,
2013-03-02 19:17:00,39.1,26.0,30.19,WNW,297,0.0,10.0,59,0.00,,---,0.00,VWS V14.01,2013-03-03 01:17:00,
2013-03-02 19:22:00,39.1,26.0,30.18,SW,226,1.0,10.0,59,0.00,,---,0.00,VWS V14.01,2013-03-03 01:22:00,
2013-03-02 19:27:00,39.1,26.0,30.19,NNW,328,1.0,10.0,59,0.00,,---,0.00,VWS V14.01,2013-03-03 01:27:00,
2013-03-02 19:30:00,38.4,25.7,30.20,WSW,255,2.0,10.0,60,0.00,,---,0.00,VWS V14.01,2013-03-03 01:30:00,
2013-03-02 19:32:00,39.0,25.9,30.19,NW,321,0.0,6.0,59,0.00,,---,0.00,VWS V14.01,2013-03-03 01:32:00,
2013-03-02 19:37:00,38.9,25.8,30.19,NW,316,1.0,8.0,59,0.00,,---,0.00,VWS V14.01,2013-03-03 01:37:00,
2013-03-02 19:42:00,38.9,26.2,30.19,NW,305,1.0,8.0,60,0.00,,---,0.00,VWS V14.01,2013-03-03 01:42:00,
2013-03-02 19:47:00,38.9,26.6,30.18,WNW,285,1.0,8.0,61,0.00,,---,0.00,VWS V14.01,2013-03-03 01:47:00,
2013-03-02 19:52:00,38.9,26.6,30.18,NW,314,1.0,8.0,61,0.00,,---,0.00,VWS V14.01,2013-03-03 01:52:00,
2013-03-02 19:57:00,38.8,26.5,30.19,NNW,330,2.0,8.0,61,0.00,,---,0.00,VWS V14.01,2013-03-03 01:57:00,
2013-03-02 20:00:00,38.1,25.5,30.20,WNW,282,3.0,10.0,60,0.00,,---,0.00,VWS V14.01,2013-03-03 02:00:00,
2013-03-02 20:02:00,38.8,26.5,30.19,NNW,328,3.0,9.0,61,0.00,,---,0.00,VWS V14.01,2013-03-03 02:02:00,
2013-03-02 20:07:00,38.7,26.4,30.19,NNE,15,8.0,9.0,61,0.00,,---,0.00,VWS V14.01,2013-03-03 02:07:00,
2013-03-02 20:12:00,38.7,26.4,30.19,NW,312,2.0,10.0,61,0.00,,---,0.00,VWS V14.01,2013-03-03 02:12:00,
2013-03-02 20:17:00,38.6,26.3,30.19,NW,325,3.0,10.0,61,0.00,,---,0.00,VWS V14.01,2013-03-03 02:17:00,
2013-03-02 20:22:00,38.6,26.3,30.20,NNW,348,1.0,10.0,61,0.00,,---,0.00,VWS V14.01,2013-03-03 02:22:00,
2013-03-02 20:27:00,38.4,25.7,30.20,WNW,301,4.0,10.0,60,0.00,,---,0.00,VWS V14.01,2013-03-03 02:27:00,
2013-03-02 20:30:00,37.9,24.9,30.21,SW,226,0.0,8.0,59,0.00,,---,0.00,VWS V14.01,2013-03-03 02:30:00,
2013-03-02 20:32:00,38.4,25.7,30.20,North,357,2.0,9.0,60,0.00,,---,0.00,VWS V14.01,2013-03-03 02:32:00,
2013-03-02 20:37:00,38.3,25.2,30.20,NNW,335,5.0,9.0,59,0.00,,---,0.00,VWS V14.01,2013-03-03 02:37:00,
2013-03-02 20:42:00,38.3,25.2,30.20,ENE,75,7.0,9.0,59,0.00,,---,0.00,VWS V14.01,2013-03-03 02:42:00,
2013-03-02 20:47:00,38.2,25.1,30.20,West,264,1.0,10.0,59,0.00,,---,0.00,VWS V14.01,2013-03-03 02:47:00,
2013-03-02 20:52:00,38.2,25.1,30.20,NW,319,4.0,10.0,59,0.00,,---,0.00,VWS V14.01,2013-03-03 02:52:00,
2013-03-02 20:57:00,38.2,25.5,30.20,NNW,343,2.0,10.0,60,0.00,,---,0.00,VWS V14.01,2013-03-03 02:57:00,
2013-03-02 21:00:00,37.6,24.6,30.21,West,262,0.0,10.0,59,0.00,,---,0.00,VWS V14.01,2013-03-03 03:00:00,
2013-03-02 21:02:00,38.1,25.5,30.20,NE,43,4.0,8.0,60,0.00,,---,0.00,VWS V14.01,2013-03-03 03:02:00,
2013-03-02 21:07:00,38.1,25.1,30.21,NNE,20,1.0,8.0,59,0.00,,---,0.00,VWS V14.01,2013-03-03 03:07:00,
2013-03-02 21:12:00,38.0,25.0,30.21,NW,311,3.0,8.0,59,0.00,,---,0.00,VWS V14.01,2013-03-03 03:12:00,
2013-03-02 21:17:00,38.0,25.0,30.21,SSW,212,4.0,8.0,59,0.00,,---,0.00,VWS V14.01,2013-03-03 03:17:00,
2013-03-02 21:22:00,38.0,25.0,30.21,West,263,3.0,8.0,59,0.00,,---,0.00,VWS V14.01,2013-03-03 03:22:00,
2013-03-02 21:27:00,37.9,25.3,30.21,NNE,32,3.0,8.0,60,0.00,,---,0.00,VWS V14.01,2013-03-03 03:27:00,
2013-03-02 21:30:00,37.3,24.3,30.21,WNW,300,0.0,12.0,59,0.00,,---,0.00,VWS V14.01,2013-03-03 03:30:00,
2013-03-02 21:32:00,37.9,24.9,30.21,ESE,117,2.0,5.0,59,0.00,,---,0.00,VWS V14.01,2013-03-03 03:32:00,
2013-03-02 21:37:00,37.9,24.9,30.21,NNE,29,0.0,10.0,59,0.00,,---,0.00,VWS V14.01,2013-03-03 03:37:00,
2013-03-02 21:42:00,37.8,24.8,30.21,NW,325,3.0,10.0,59,0.00,,---,0.00,VWS V14.01,2013-03-03 03:42:00,
2013-03-02 21:47:00,37.7,25.1,30.21,North,352,1.0,10.0,60,0.00,,---,0.00,VWS V14.01,2013-03-03 03:47:00,
2013-03-02 21:52:00,37.7,25.1,30.21,WNW,288,0.0,10.0,60,0.00,,---,0.00,VWS V14.01,2013-03-03 03:52:00,
2013-03-02 21:57:00,37.6,24.6,30.21,NNW,343,1.0,10.0,59,0.00,,---,0.00,VWS V14.01,2013-03-03 03:57:00,
2013-03-02 22:00:00,37.1,24.1,30.21,WNW,300,0.0,8.0,59,0.00,,---,0.00,VWS V14.01,2013-03-03 04:00:00,
2013-03-02 22:02:00,37.6,24.6,30.21,NW,311,4.0,12.0,59,0.00,,---,0.00,VWS V14.01,2013-03-03 04:02:00,
2013-03-02 22:07:00,37.5,24.5,30.21,NNW,339,2.0,12.0,59,0.00,,---,0.00,VWS V14.01,2013-03-03 04:07:00,
2013-03-02 22:12:00,37.5,24.5,30.21,WNW,284,0.0,12.0,59,0.00,,---,0.00,VWS V14.01,2013-03-03 04:12:00,
2013-03-02 22:17:00,37.4,24.4,30.21,North,351,5.0,12.0,59,0.00,,---,0.00,VWS V14.01,2013-03-03 04:17:00,
2013-03-02 22:22:00,37.3,24.3,30.21,NW,304,2.0,12.0,59,0.00,,---,0.00,VWS V14.01,2013-03-03 04:22:00,
2013-03-02 22:27:00,37.3,24.3,30.21,NNE,15,0.0,12.0,59,0.00,,---,0.00,VWS V14.01,2013-03-03 04:27:00,
2013-03-02 22:30:00,36.8,24.2,30.20,East,98,4.0,8.0,60,0.00,,---,0.00,VWS V14.01,2013-03-03 04:30:00,
2013-03-02 22:32:00,37.3,24.7,30.21,NNW,346,2.0,4.0,60,0.00,,---,0.00,VWS V14.01,2013-03-03 04:32:00,
2013-03-02 22:37:00,37.3,24.3,30.21,West,276,1.0,8.0,59,0.00,,---,0.00,VWS V14.01,2013-03-03 04:37:00,
2013-03-02 22:42:00,37.2,24.2,30.21,NW,304,0.0,8.0,59,0.00,,---,0.00,VWS V14.01,2013-03-03 04:42:00,
2013-03-02 22:47:00,37.2,24.2,30.21,WSW,248,1.0,8.0,59,0.00,,---,0.00,VWS V14.01,2013-03-03 04:47:00,
2013-03-02 22:52:00,37.2,24.6,30.21,North,4,6.0,8.0,60,0.00,,---,0.00,VWS V14.01,2013-03-03 04:52:00,
2013-03-02 22:57:00,37.1,24.1,30.21,WSW,252,5.0,8.0,59,0.00,,---,0.00,VWS V14.01,2013-03-03 04:57:00,
2013-03-02 23:00:00,37.1,24.1,30.21,WNW,293,0.0,2.0,59,0.00,,---,0.00,VWS V14.01,2013-03-03 05:00:00,
2013-03-02 23:05:00,37.1,24.1,30.21,NW,321,1.0,6.0,59,0.00,,---,0.00,VWS V14.01,2013-03-03 05:05:00,
2013-03-02 23:10:00,37.0,24.0,30.20,West,277,0.0,6.0,59,0.00,,---,0.00,VWS V14.01,2013-03-03 05:10:00,
2013-03-02 23:15:00,37.0,24.0,30.20,NW,316,0.0,6.0,59,0.00,,---,0.00,VWS V14.01,2013-03-03 05:15:00,
2013-03-02 23:20:00,36.9,23.9,30.20,NW,307,1.0,6.0,59,0.00,,---,0.00,VWS V14.01,2013-03-03 05:20:00,
2013-03-02 23:25:00,36.9,23.9,30.20,NNE,33,2.0,6.0,59,0.00,,---,0.00,VWS V14.01,2013-03-03 05:25:00,
2013-03-02 23:30:00,36.8,24.2,30.20,North,355,4.0,4.0,60,0.00,,---,0.00,VWS V14.01,2013-03-03 05:30:00,
2013-03-02 23:35:00,36.8,23.8,30.20,West,281,1.0,5.0,59,0.00,,---,0.00,VWS V14.01,2013-03-03 05:35:00,
2013-03-02 23:40:00,36.8,23.8,30.20,WNW,302,2.0,7.0,59,0.00,,---,0.00,VWS V14.01,2013-03-03 05:40:00,
2013-03-02 23:45:00,36.7,23.3,30.20,North,356,2.0,10.0,58,0.00,,---,0.00,VWS V14.01,2013-03-03 05:45:00,
2013-03-02 23:50:00,36.7,23.7,30.20,North,353,0.0,10.0,59,0.00,,---,0.00,VWS V14.01,2013-03-03 05:50:00,
2013-03-02 23:55:00,36.7,23.7,30.20,North,353,3.0,10.0,59,0.00,,---,0.00,VWS V14.01,2013-03-03 05:55:00,